Wind_Speed
9 9 11 11 12 15 17 16 13 15 15 12 11 11 9 10 12 15 18 19 22 25 26 27 27 28 29 31 30 28 30 33
9 10 11 11 12 16 16 17 16 16 13 11 12 12 13 13 15 18 20 24 25 27 28 28 28 29 32 33 32 31 33 34
10 10 12 11 12 15 16 18 16 16 15 15 13 13 14 17 20 22 25 27 28 29 31 30 30 30 32 32 31 33 32 32
10 11 13 14 15 15 15 18 17 15 15 16 15 15 16 21 26 29 29 29 29 31 32 33 33 33 33 33 32 34 34 32
10 12 14 16 14 17 18 19 16 15 16 17 19 19 19 22 25 28 28 28 29 32 33 34 34 34 35 35 34 35 35 35
12 14 15 15 18 20 22 21 18 17 20 20 21 22 22 22 27 27 28 30 31 31 33 34 35 36 37 37 37 36 36 35
14 15 15 18 22 21 20 19 19 18 18 19 22 24 25 26 25 23 25 28 30 31 33 36 37 39 39 38 37 37 36 35
16 17 17 20 23 21 19 18 18 17 19 19 22 24 23 21 23 25 27 30 32 35 37 39 40 41 41 40 39 38 38 37
17 17 19 21 22 19 19 17 17 18 20 21 20 20 22 24 25 27 29 32 35 37 39 42 43 44 43 42 42 41 40 39
16 17 19 21 20 20 19 17 16 18 19 18 18 20 23 26 28 31 33 35 38 40 42 43 45 45 45 44 44 42 42 41
20 18 20 19 19 19 18 16 15 17 18 20 22 24 25 27 30 33 37 38 40 41 43 45 47 47 46 46 45 45 43 42
22 21 20 17 17 17 18 16 14 16 19 21 24 26 28 31 33 35 39 41 42 44 46 48 49 48 47 47 47 46 45 43
23 22 20 17 14 14 17 19 19 20 22 23 27 29 32 35 37 39 41 44 45 46 48 49 50 49 49 49 49 48 46 43
24 23 20 19 17 16 17 21 22 24 25 27 29 33 35 38 40 41 43 46 47 48 50 50 51 50 50 52 51 48 44 42
27 19 21 19 21 21 22 24 26 28 30 31 33 36 38 40 42 44 47 49 50 51 51 52 51 51 52 52 50 46 42 45
23 22 20 20 21 25 26 28 30 31 32 32 34 37 39 41 44 47 50 51 51 52 53 54 53 53 53 51 49 44 45 48
27 24 22 20 22 26 28 30 32 32 34 35 36 38 40 43 46 49 52 52 52 54 54 53 54 54 52 52 46 45 48 49
27 26 25 25 25 28 31 33 34 35 35 35 37 40 42 45 49 52 53 54 54 53 53 54 55 53 52 49 46 48 50 49
22 27 29 28 30 31 33 34 36 37 37 37 39 41 45 48 52 53 55 55 54 53 53 53 54 53 49 46 48 50 48 46
Wind_Direction
341 330 339 333 332 335 320 324 330 334 332 336 334 334 337 329 325 322 325 325 324 322 322 318 319 321 323 326 324 320 315 312
335 331 329 327 332 323 319 325 326 333 331 329 328 330 329 324 322 321 319 318 317 319 321 323 324 325 326 324 322 322 320 316
325 320 321 322 325 321 321 321 318 315 315 318 319 318 317 316 314 310 311 314 316 319 322 325 326 326 326 323 321 321 319 315
311 312 314 315 316 314 313 309 311 306 306 306 302 299 306 310 316 317 312 314 319 321 325 327 328 328 327 324 320 320 320 316
298 302 306 307 317 315 314 311 311 302 299 296 295 298 305 309 309 309 312 319 322 325 327 327 328 327 326 325 319 317 317 315
289 294 299 298 309 310 304 304 307 308 304 300 299 302 301 305 313 321 321 322 325 324 324 325 327 328 326 324 319 315 314 313
287 291 295 300 307 308 301 301 306 311 306 304 305 308 312 315 316 319 318 317 320 320 322 324 326 327 327 323 317 312 309 308
291 292 295 300 306 305 297 300 302 308 306 307 309 314 317 323 325 325 325 324 322 323 323 323 323 323 324 322 318 311 307 306
287 292 294 299 304 302 295 300 303 305 309 312 316 318 320 322 321 323 323 323 321 319 320 321 321 321 323 323 319 313 307 305
291 292 292 296 301 299 296 298 302 308 310 317 317 321 322 324 322 320 320 319 318 317 317 318 320 321 322 321 320 313 307 305
295 291 289 294 298 296 300 302 301 302 311 316 321 322 320 318 318 315 315 314 313 315 316 318 319 320 320 320 319 312 307 304
292 291 289 295 296 295 296 301 301 302 308 314 318 318 316 315 315 315 313 312 314 315 316 317 318 319 319 319 318 312 307 304
289 286 291 295 295 294 293 300 304 305 307 312 312 312 313 315 315 315 313 313 314 313 314 314 316 319 320 320 317 314 308 304
287 289 297 299 297 294 292 296 301 305 306 308 308 309 311 312 313 314 313 312 312 312 313 314 316 318 320 319 316 313 307 304
282 292 300 300 298 299 298 300 305 307 306 308 309 309 310 312 314 314 313 313 312 312 313 314 316 318 320 318 316 312 306 307
283 291 298 299 300 300 297 300 304 305 304 305 306 308 311 314 314 313 312 311 311 311 313 315 316 319 318 317 315 310 308 309
295 298 297 297 293 296 299 301 302 304 305 305 307 309 312 312 312 311 310 310 311 312 312 315 317 319 318 317 314 309 310 311
287 292 294 296 296 301 302 300 301 301 302 303 305 307 309 309 308 308 308 309 311 311 312 314 318 320 317 317 313 312 312 312
280 289 293 296 295 297 297 297 298 299 299 301 303 305 306 306 305 306 307 308 309 310 312 314 318 319 317 315 314 313 313 312
Height
5865 5863 5861 5860 5857 5855 5854 5852 5848 5846 5844 5842 5841 5839 5838 5837 5836 5834 5832 5831 5828 5825 5823 5819 5815 5809 5805 5800 5796 5793 5788 5782
5861 5860 5858 5856 5854 5853 5850 5847 5846 5844 5842 5840 5839 5838 5838 5835 5833 5831 5828 5826 5824 5820 5817 5813 5808 5804 5799 5795 5790 5786 5781 5775
5858 5856 5856 5853 5851 5850 5848 5846 5843 5842 5840 5839 5837 5835 5833 5831 5830 5828 5826 5822 5819 5816 5811 5807 5803 5798 5794 5789 5784 5780 5776 5770
5854 5853 5852 5850 5849 5847 5844 5843 5839 5838 5838 5838 5835 5833 5831 5828 5826 5823 5820 5817 5814 5809 5805 5801 5797 5792 5787 5782 5777 5773 5768 5765
5850 5849 5848 5846 5845 5844 5841 5841 5837 5834 5834 5832 5832 5830 5826 5825 5823 5820 5816 5812 5808 5804 5799 5795 5790 5785 5780 5775 5771 5766 5761 5756
5847 5846 5845 5844 5842 5840 5838 5835 5833 5830 5828 5827 5826 5826 5823 5820 5817 5813 5808 5805 5802 5797 5793 5789 5784 5779 5774 5769 5763 5759 5754 5749
5843 5843 5842 5839 5838 5835 5832 5830 5828 5826 5825 5823 5821 5819 5815 5812 5810 5809 5806 5801 5797 5793 5787 5782 5776 5771 5766 5761 5756 5751 5746 5741
5840 5839 5838 5835 5832 5830 5828 5825 5823 5820 5819 5816 5815 5813 5811 5808 5805 5802 5799 5795 5790 5785 5780 5774 5769 5763 5758 5753 5747 5742 5737 5732
5837 5834 5833 5830 5827 5825 5823 5821 5819 5816 5814 5811 5809 5807 5805 5802 5799 5795 5791 5788 5783 5778 5772 5766 5760 5755 5749 5744 5738 5733 5728 5722
5831 5829 5827 5825 5822 5819 5818 5817 5814 5811 5810 5807 5805 5802 5799 5796 5793 5790 5785 5780 5775 5770 5764 5758 5752 5746 5740 5735 5729 5723 5718 5712
5823 5823 5821 5820 5816 5814 5812 5812 5811 5807 5804 5802 5799 5797 5794 5791 5786 5782 5778 5773 5768 5762 5755 5749 5743 5737 5731 5724 5719 5713 5707 5702
5817 5817 5815 5814 5812 5809 5806 5806 5804 5802 5799 5797 5794 5791 5788 5785 5780 5775 5770 5764 5758 5753 5746 5740 5734 5728 5722 5715 5708 5702 5696 5691
5811 5809 5808 5807 5806 5803 5801 5799 5798 5796 5793 5791 5788 5784 5780 5776 5772 5766 5761 5756 5749 5743 5737 5731 5724 5718 5711 5704 5697 5690 5684 5680
5803 5803 5801 5800 5801 5799 5797 5794 5792 5789 5787 5784 5781 5777 5773 5769 5764 5759 5753 5747 5741 5734 5727 5720 5713 5707 5700 5693 5685 5678 5672 5668
5796 5797 5795 5793 5792 5791 5790 5788 5785 5783 5781 5777 5774 5769 5765 5761 5755 5750 5743 5738 5731 5724 5717 5710 5703 5696 5689 5681 5674 5667 5661 5656
5789 5789 5788 5786 5785 5785 5784 5782 5779 5777 5773 5770 5766 5761 5757 5751 5746 5740 5733 5727 5721 5714 5707 5700 5692 5685 5677 5670 5663 5656 5651 5644
5780 5782 5781 5780 5779 5778 5777 5775 5772 5769 5766 5762 5757 5752 5747 5741 5735 5729 5723 5716 5710 5704 5697 5689 5681 5674 5666 5659 5652 5646 5640 5633
5776 5776 5776 5774 5773 5771 5769 5767 5764 5761 5757 5753 5748 5742 5737 5731 5725 5718 5711 5705 5699 5693 5686 5679 5671 5662 5654 5647 5641 5635 5628 5621
5772 5769 5768 5768 5766 5765 5762 5759 5756 5752 5748 5743 5738 5732 5726 5720 5713 5706 5699 5693 5687 5681 5675 5668 5661 5651 5643 5636 5630 5624 5616 5609